This demonstration page uses our WeatherBlox Daily Observations layout. Learn more.

Hourly Observations for February 27, 2015

Temp ( °F °C ) Dew Point ( °F °C ) Humidity (%) Winds ( mph kmh ) Pressure ( in mb ) Visibility ( mi km ) Precip ( " mm )
12:15 am 00:15 Clear 1 -17.5 -8 -22.3 66 66 NE 5 7 30.77 1042 10 16.0934 0 0
12:35 am 00:35 Clear 0 -17.6 -8 -22.2 68 68 Calm 30.77 1042 10 16.0934 0 0
12:55 am 00:55 Clear 2 -16.5 -7 -21.4 66 66 E 3 6 30.74 1041 10 16.0934 0 0
1:15 am 01:15 Clear 0 -17.6 -7 -21.6 71 71 Calm 30.77 1042 10 16.0934 0 0
1:35 am 01:35 Clear 1 -17.2 -7 -21.4 70 70 Calm 30.77 1042 10 16.0934 0 0
1:55 am 01:55 Clear -1 -18.1 -7 -21.9 72 72 Calm 30.77 1042 10 16.0934 0 0
2:15 am 02:15 Clear -2 -18.7 -8 -22.2 74 74 Calm 30.77 1042 10 16.0934 0 0
2:35 am 02:35 Clear 1 -17.5 -6 -20.9 75 75 Calm 30.77 1042 10 16.0934 0 0
2:55 am 02:55 Clear -1 -18.2 -7 -21.9 73 73 Calm 30.77 1042 10 16.0934 0 0
3:15 am 03:15 Partly Cloudy 1 -17.4 -6 -21.2 72 72 SSW 3 6 30.77 1042 10 16.0934 0 0
3:35 am 03:35 Clear 2 -16.6 -5 -20.6 71 71 Calm 30.74 1041 10 16.0934 0 0
3:55 am 03:55 Clear 0 -18 -7 -21.5 74 74 Calm 30.74 1041 10 16.0934 0 0
4:15 am 04:15 Clear -1 -18.4 -7 -21.6 76 76 Calm 30.74 1041 10 16.0934 0 0
4:35 am 04:35 Clear -2 -18.8 -7 -21.9 77 77 Calm 30.74 1041 10 16.0934 0 0
4:55 am 04:55 Clear -1 -18.3 -7 -21.5 76 76 Calm 30.74 1041 10 16.0934 0 0
5:15 am 05:15 Clear -1 -18.3 -7 -21.7 75 75 Calm 30.77 1042 10 16.0934 0 0
5:35 am 05:35 Clear 0 -17.7 -6 -21.1 75 75 Calm 30.74 1041 10 16.0934 0 0
5:55 am 05:55 Clear 1 -17.4 -6 -20.9 74 74 Calm 30.77 1042 10 16.0934 0 0
6:15 am 06:15 Partly Cloudy 1 -17.1 -5 -20.6 74 74 Calm 30.77 1042 10 16.0934 0 0
6:35 am 06:35 Cloudy 3 -16.1 -4 -19.9 73 73 Calm 30.74 1041 10 16.0934 0 0
6:55 am 06:55 Mostly Cloudy 1 -17.5 -6 -21.3 72 72 Calm 30.77 1042 10 16.0934 0 0
7:15 am 07:15 Mostly Cloudy 1 -17 -5 -20.7 73 73 Calm 30.74 1041 10 16.0934 0 0
7:35 am 07:35 Partly Cloudy 1 -17.3 -6 -21.1 72 72 Calm 30.74 1041 10 16.0934 0 0
7:55 am 07:55 Sunny 1 -17 -5 -20.7 73 73 Calm 30.74 1041 10 16.0934 0 0
8:15 am 08:15 Partly Cloudy 4 -15.5 -2 -19 75 75 Calm 30.71 1040 10 16.0934 0 0
8:35 am 08:35 Partly Cloudy 6 -14.6 -1 -18.3 74 74 Calm 30.74 1041 10 16.0934 0 0
8:55 am 08:55 Mostly Cloudy 8 -13.3 -1 -18.3 66 66 SSE 6 9 30.71 1040 10 16.0934 0 0
9:15 am 09:15 Partly Cloudy 8 -13.2 -2 -18.9 63 63 S 7 11 30.71 1040 10 16.0934 0 0
9:35 am 09:35 Partly Cloudy 9 -12.6 -1 -18.5 62 62 SSE 6 9 30.71 1040 10 16.0934 0 0
9:55 am 09:55 Partly Cloudy 11 -11.6 -1 -18.3 58 58 S 5 7 30.71 1040 10 16.0934 0 0
10:15 am 10:15 Sunny 11 -11.7 -2 -18.9 55 55 SSE 7 11 30.71 1040 10 16.0934 0 0
10:35 am 10:35 Sunny 12 -11.2 -2 -19 53 53 SSE 6 9 30.65 1038 10 16.0934 0 0
10:55 am 10:55 Sunny 13 -10.7 -2 -19 51 51 S 5 7 30.65 1038 10 16.0934 0 0
11:15 am 11:15 Sunny 14 -9.9 -2 -18.7 49 49 SSE 9 15 30.65 1038 10 16.0934 0 0
11:35 am 11:35 Sunny 15 -9.4 -2 -18.9 46 46 S 6 9 30.65 1038 10 16.0934 0 0
11:55 am 11:55 Sunny 17 -8.6 -2 -18.9 44 44 SSE 7 11 30.65 1038 10 16.0934 0 0
12:15 pm 12:15 Sunny 17 -8.6 -3 -19.2 42 42 S 7 11 30.65 1038 10 16.0934 0 0
12:35 pm 12:35 Partly Cloudy 17 -8.1 -3 -19.5 40 40 S 10 17 30.59 1036 10 16.0934 0 0
12:55 pm 12:55 Mostly Cloudy 18 -7.9 -4 -19.8 38 38 S 7 11 30.59 1036 10 16.0934 0 0
1:15 pm 13:15 Cloudy 18 -7.6 -6 -21 34 34 SSE 5 7 30.56 1035 10 16.0934 0 0
1:35 pm 13:35 Partly Cloudy 19 -7.1 -5 -20.7 33 33 SSE 9 15 30.56 1035 10 16.0934 0 0
1:55 pm 13:55 Partly Cloudy 20 -6.7 -5 -20.6 32 32 SE 7 11 30.53 1034 10 16.0934 0 0
2:15 pm 14:15 Partly Cloudy 21 -6.1 -4 -20.2 32 32 S 10 17 30.5 1033 10 16.0934 0 0
2:35 pm 14:35 Mostly Cloudy 20 -6.4 -5 -20.5 32 32 SE 8 13 30.5 1033 10 16.0934 0 0
2:55 pm 14:55 Cloudy 22 -5.5 -5 -20.8 29 29 SE 8 13 30.48 1032 10 16.0934 0 0
3:15 pm 15:15 Mostly Cloudy 22 -5.5 -5 -20.8 29 29 SSE 12 19 30.48 1032 10 16.0934 0 0
3:35 pm 15:35 Sunny 22 -5.6 -7 -21.9 27 27 SSE 12 19 30.48 1032 10 16.0934 0 0
3:55 pm 15:55 Sunny 21 -5.9 -6 -21.3 29 29 SSE 10 17 30.48 1032 10 16.0934 0 0
4:15 pm 16:15 Sunny 22 -5.4 -6 -21 28 28 S 12 19 30.48 1032 10 16.0934 0 0
4:35 pm 16:35 Sunny 22 -5.8 -6 -21.1 29 29 S 14 22 30.48 1032 10 16.0934 0 0
4:55 pm 16:55 Sunny 21 -6.1 -6 -20.9 30 30 S 14 22 30.48 1032 10 16.0934 0 0
5:15 pm 17:15 Sunny 20 -6.4 -5 -20.7 31 31 SSE 14 22 30.48 1032 10 16.0934 0 0
5:35 pm 17:35 Sunny 20 -6.6 -5 -20.3 33 33 S 13 20 30.5 1033 10 16.0934 0 0
5:55 pm 17:55 Sunny 19 -7.1 -6 -21.2 32 32 S 14 22 30.5 1033 10 16.0934 0 0
6:15 pm 18:15 Partly Cloudy 18 -7.7 -6 -21 34 34 SSE 12 19 30.5 1033 10 16.0934 0 0
6:35 pm 18:35 Partly Cloudy 17 -8.6 -5 -20.8 37 37 SSE 9 15 30.5 1033 10 16.0934 0 0
6:55 pm 18:55 Mostly Cloudy 16 -9 -5 -20.6 39 39 SE 8 13 30.5 1033 10 16.0934 0 0
7:15 pm 19:15 Mostly Cloudy 14 -9.8 -5 -20.3 42 42 SE 9 15 30.53 1034 10 16.0934 0 0
7:35 pm 19:35 Mostly Cloudy 14 -10.2 -4 -20 45 45 SE 8 13 30.53 1034 10 16.0934 0 0
7:55 pm 19:55 Partly Cloudy 12 -11 -4 -19.8 49 49 SE 7 11 30.53 1034 10 16.0934 0 0
8:15 pm 20:15 Mostly Cloudy 11 -11.6 -3 -19.3 53 53 SSE 7 11 30.53 1034 10 16.0934 0 0
8:35 pm 20:35 Partly Cloudy 13 -10.4 1 -17.1 58 58 SSE 9 15 30.53 1034 10 16.0934 0 0
8:55 pm 20:55 Clear 13 -10.3 3 -16 63 63 SSE 8 13 30.53 1034 10 16.0934 0 0
9:15 pm 21:15 Partly Cloudy 13 -10.7 3 -15.9 66 66 SSE 7 11 30.53 1034 10 16.0934 0 0
9:35 pm 21:35 Partly Cloudy 13 -10.8 4 -15.7 68 68 SSE 7 11 30.53 1034 10 16.0934 0 0
9:55 pm 21:55 Partly Cloudy 11 -11.5 4 -15.8 71 71 SSE 9 15 30.53 1034 10 16.0934 0 0
10:15 pm 22:15 Clear 12 -11.2 3 -16.3 66 66 SSE 8 13 30.53 1034 10 16.0934 0 0
10:35 pm 22:35 Clear 10 -12.5 2 -16.8 71 71 SSE 7 11 30.53 1034 10 16.0934 0 0
10:55 pm 22:55 Clear 9 -12.7 2 -16.9 71 71 SSE 7 11 30.56 1035 10 16.0934 0 0
11:15 pm 23:15 Partly Cloudy 9 -12.6 2 -16.9 71 71 SSE 6 9 30.56 1035 10 16.0934 0 0
11:35 pm 23:35 Clear 8 -13.2 1 -17 73 73 SSE 7 11 30.56 1035 10 16.0934 0 0
11:55 pm 23:55 Clear 8 -13.3 1 -17 74 74 SSE 8 13 30.53 1034 10 16.0934 0 0

Powered by AerisWeather